Location: Unspecified
(51.5147°N, 7.4673°E)
Time: 17:38:40
(UTC+01:00)

Vanguard 1 - Pass Details

Date: 25 February 2026
Orbit: 653 x 3818 km, 34.2° (Epoch: 5 March)

Event Time Altitude Azimuth Distance (km) Brightness Sun altitude
Rises 20:53:33 0° 267° (W) 6,127 15.2 -26.9°
Reaches altitude 10° 20:59:37 10° 249° (WSW) 5,688 14.5 -27.7°
Maximum altitude 21:08:54 16° 218° (SW) 5,805 14.1 -29.1°
Drops below altitude 10° 21:19:55 10° 188° (S) 6,820 14.1 -30.6°
Sets 21:28:53 0° 171° (S) 7,942 14.4 -31.8°
